This is the latest recevied weather packets stored in our database for station/object AI5YA-13. If no packets are shown the sender has not sent any weather packets the latest 10 day(s).
| Time | Temp. | Humidity | Pressure | Rain* | Wind** | Luminosity | Snow |
|---|---|---|---|---|---|---|---|
| 1777836517 | 22.78° C | 40% | 1019.1 hPa | 0 mm | - | 634 W/m² | - |
| 1777836213 | 23.33° C | 39% | 1019.5 hPa | 0 mm | - | 777 W/m² | - |
| 1777835910 | 23.33° C | 40% | 1019.7 hPa | 0 mm | - | 762 W/m² | - |
| 1777835607 | 23.33° C | 40% | 1019.9 hPa | 0 mm | - | 767 W/m² | - |
| 1777835303 | 23.89° C | 40% | 1019.9 hPa | 0 mm | - | 783 W/m² | - |
| 1777835001 | 22.78° C | 40% | 1019.8 hPa | 0 mm | - | 769 W/m² | - |
| 1777834698 | 22.78° C | 42% | 1020 hPa | 0 mm | - | 722 W/m² | - |
| 1777834393 | 23.33° C | 40% | 1020.2 hPa | 0 mm | - | 745 W/m² | - |
| 1777834088 | 22.78° C | 41% | 1019.9 hPa | 0 mm | - | 690 W/m² | - |
| 1777833785 | 22.78° C | 41% | 1020.2 hPa | 0 mm | - | 726 W/m² | - |
| 1777833480 | 22.22° C | 41% | 1020.2 hPa | 0 mm | - | 637 W/m² | - |
| 1777833178 | 22.78° C | 42% | 1020.1 hPa | 0 mm | - | 745 W/m² | - |
| 1777832875 | 22.78° C | 41% | 1020.3 hPa | 0 mm | - | 610 W/m² | - |
| 1777832574 | 22.22° C | 44% | 1020.7 hPa | 0 mm | - | 760 W/m² | - |
| 1777832270 | 22.22° C | 43% | 1020.6 hPa | 0 mm | - | 728 W/m² | - |
| 1777831968 | 22.22° C | 43% | 1021 hPa | 0 mm | - | 490 W/m² | - |
| 1777831664 | 21.67° C | 42% | 1021 hPa | 0 mm | - | 741 W/m² | - |
| 1777831362 | 22.22° C | 44% | 1020.9 hPa | 0 mm | - | 760 W/m² | - |
| 1777831058 | 22.22° C | 44% | 1021 hPa | 0 mm | - | 767 W/m² | - |
| 1777830757 | 22.22° C | 43% | 1021 hPa | 0 mm | - | 755 W/m² | - |
| 1777830452 | 21.67° C | 44% | 1021.4 hPa | 0 mm | - | 773 W/m² | - |
| 1777830150 | 21.67° C | 43% | 1021.1 hPa | 0 mm | - | 763 W/m² | - |
| 1777829845 | 21.67° C | 43% | 1021.3 hPa | 0 mm | - | 803 W/m² | - |
| 1777829541 | 21.67° C | 45% | 1021.7 hPa | 0 mm | - | 803 W/m² | - |
| 1777829238 | 21.11° C | 44% | 1021.7 hPa | 0 mm | - | 806 W/m² | - |
* Rain latest hour (hover to see other rain measurements)
** Current wind speed in m/s (hover to see current wind gust speed)